Powrót do katalogu

SL-12 DEB

LostHEO
NORAD 25807·DEBRIS·🇷🇺 Russia

Wystrzelony Sep 16, 1987 z Baikonur Cosmodrome

Loading…

Następne Przeloty (najbliższe 24 godziny)

TLE

NieaktualneSource: Space-Track

Epoka: Jan 31, 2025, 17:01 UTC

1 25807U 87079S   25031.70937398  .00001489  00000-0  15145-2 0  9990
2 25807  65.1031 181.5852 5405636 318.1075  11.1700  4.81117857446336

Śledź SL-12 DEB w czasie rzeczywistym z AllMySat

Download on the App Store